PRAETORIAN SDA_603

Last updated on Sat Oct 11 2025 00:02:05 GMT+0000 (Coordinated Universal Time)

1 65566U 25203B 25283.39127437 .00000055 00000+0 37607-4 0 9992 2 65566 81.3018 242.1529 0010665 144.4686 215.7183 13.85355728 4139
UTC large
Height (km)
Speed (km/s)
/
Latitude / Longitude
Inclination (degrees)
Orbital Period (minutes)
Azimuth
Elevation
Range (km)
Doppler Factor

Next 0 passes for location: London (51.5072 / 0.1276)

Sorry there are no passes over London.